Location: Arpaise
(41.0333°N, 14.7333°E)
Time: 08:04:24
(UTC+00:00)

Cosmos 2366 rocket - Pass Details

Date: 05 July 2020
Orbit: 954 x 998 km, 82.9° (Epoch: 05 August)

Event Time Altitude Azimuth Distance (km) Brightness Sun altitude
Exits shadow 22:56:30 59° 214° (SW) 1,145 4.0 -26.3°
Maximum altitude 22:57:44 75° 278° (W) 1,033 4.0 -26.3°
Drops below altitude 10° 23:04:07 10° 4° (N) 2,770 7.4 -26.3°
Sets 23:06:39 0° 6° (N) 3,720 8.4 -26.3°
